Regional Weather Roundup
Issued by NWS Kansas City/Pleasant Hill, MO

Home | Current Version | Previous Version | Text Only | Print | Product List | Glossary On
Versions: 1 2 3 4 5 6 7 8 9 10 11 12 13 14 15 16 17 18 19 20 21 22 23 24 25 26 27
000
ASUS43 KEAX 260810
RWREAX

WEATHER ROUNDUP FOR EASTERN KANSAS AND NORTHWEST MISSOURI
NATIONAL WEATHER SERVICE KANSAS CITY/PLEASANT HILL MO
300 AM CDT MON SEP 26 2016

KSZ040-057-103>105-MOZ028-029-037-043-260900-
...KANSAS CITY METROPOLITAN AREA...

CITY           SKY/WX    TMP DP  RH WIND       PRES   REMARKS
K.C. INTL      CLEAR     54  50  86 NW7       30.23R
K.C. DOWNTOWN  CLEAR     59  55  87 CALM      30.22R
LEES SUMMIT    PTCLDY    58  51  78 NW6       30.22S
OLATHE - IXD   CLEAR     55  52  89 NW8       30.24R
OLATHE - OJC   CLEAR     56  53  90 NW5       30.23R
LAWRENCE       CLEAR     53  50  89 NW8       30.24R

$$

MOZ001>008-011>017-020>025-030>033-038>040-044>046-053-054-260900-
...NORTHERN AND CENTRAL MISSOURI...

CITY           SKY/WX    TMP DP  RH WIND       PRES   REMARKS
ST. JOSEPH     CLEAR     53  47  79 CALM      30.23S
MOSBY          SUNNY     54  52  94 CALM      30.22R
WHITEMAN AFB   PTCLDY    60  59  98 NW6       30.18S
CLINTON        CLOUDY    59  59 100 CALM      30.20S
SEDALIA        CLOUDY    61  57  87 W6        30.19S
WARSAW         NOT AVBL
CHILLICOTHE      N/A     58  47  66 CALM      30.20S
KIRKSVILLE     CLOUDY    57  50  77 W8        30.17R

$$

MOZ041-047>049-056>058-063>065-088>090-097-260900-
...EASTERN AND SOUTHERN MISSOURI...

CITY           SKY/WX    TMP DP  RH WIND       PRES   REMARKS
ST. LOUIS INTL LGT RAIN  62  56  80 NW9       30.12S
SPIRIT OF STL  LGT RAIN  61  57  87 NW5       30.12S
COLUMBIA       CLOUDY    61  59  93 W5        30.16F
JEFFERSON CITY CLOUDY    61  59  93 CALM      30.16S
ROLLA          LGT RAIN  58  56  93 N5        30.16F
SPRINGFIELD    LGT RAIN  60  56  86 NE7       30.19F
BRANSON        LGT RAIN  57  57 100 N5        30.20F
JOPLIN         CLOUDY    60  59  96 CALM        N/A
WEST PLAINS    MOCLDY    60  56  86 NW8G21    30.18R

$$

IAZ060-094-KSZ022-034>040-054-083-096-NEZ052-066-093-260900-
...KANSAS...SOUTHEAST NEBRASKA AND IOWA...

CITY           SKY/WX    TMP DP  RH WIND       PRES   REMARKS
TOPEKA         CLEAR     53  44  71 NW6       30.25S HAZE
MANHATTAN      CLEAR     48  44  86 CALM      30.28R
EMPORIA        CLEAR     52  47  83 NW3       30.26R
CHANUTE        CLOUDY    58  55  90 N6        30.23R
WICHITA        PTCLDY    53  47  79 NW8       30.28R
OMAHA          CLEAR     53  38  56 W7        30.22S
LINCOLN        CLEAR     47  39  74 N3        30.27S
FALLS CITY     PTCLDY    50  43  77 W8        30.24R
LAMONI         CLEAR     50  45  83 W8        30.18S
DES MOINES     CLEAR     54  43  66 NW9       30.14S

$$





USA.gov is the U.S. government's official web portal to all federal, state and local government web resources and services.